This is the latest recevied weather packets stored in our database for station/object WC0AA15WX. If no packets are shown the sender has not sent any weather packets the latest 10 day(s).
| Time | Temp. | Humidity | Pressure | Rain* | Wind** | Luminosity | Snow |
|---|---|---|---|---|---|---|---|
| 1777621359 | 7.78° C | 72% | 1024.7 hPa | 0 mm | - | - | - |
| 1777620759 | 8.33° C | 72% | 1024.7 hPa | 0 mm | - | - | - |
| 1777620159 | 8.33° C | 70% | 1024.7 hPa | 0 mm | - | - | - |
| 1777619559 | 8.33° C | 70% | 1024.7 hPa | 0 mm | - | - | - |
| 1777618959 | 7.78° C | 73% | 1024.7 hPa | 0 mm | - | - | - |
| 1777618359 | 7.78° C | 72% | 1024.7 hPa | 0 mm | - | - | - |
| 1777617759 | 8.33° C | 71% | 1024.4 hPa | 0 mm | - | - | - |
| 1777617159 | 8.33° C | 71% | 1024.7 hPa | 0 mm | - | - | - |
| 1777616559 | 8.89° C | 70% | 1024.7 hPa | 0 mm | - | - | - |
| 1777615959 | 8.89° C | 70% | 1024.7 hPa | 0 mm | - | - | - |
| 1777615359 | 8.89° C | 67% | 1024.7 hPa | 0 mm | - | - | - |
| 1777614759 | 9.44° C | 68% | 1024.4 hPa | 0 mm | - | - | - |
| 1777614159 | 8.89° C | 69% | 1024.7 hPa | 0 mm | - | - | - |
| 1777613558 | 8.89° C | 69% | 1024.7 hPa | 0 mm | - | - | - |
| 1777612958 | 9.44° C | 69% | 1024.4 hPa | 0 mm | - | - | - |
| 1777612358 | 9.44° C | 68% | 1024.4 hPa | 0 mm | - | - | - |
| 1777611758 | 9.44° C | 69% | 1024.4 hPa | 0 mm | - | - | - |
| 1777611158 | 9.44° C | 70% | 1024.4 hPa | 0 mm | - | - | - |
| 1777610558 | 10° C | 70% | 1024 hPa | 0 mm | - | - | - |
| 1777609958 | 10° C | 70% | 1024 hPa | 0 mm | - | - | - |
| 1777609328 | 10.56° C | 69% | 1024 hPa | 0 mm | - | - | - |
| 1777608728 | 10.56° C | 68% | 1023.9 hPa | 0 mm | - | - | - |
| 1777608128 | 10.56° C | 69% | 1023.7 hPa | 0 mm | - | - | - |
| 1777607498 | 11.11° C | 69% | 1024 hPa | 0 mm | - | - | - |
| 1777606898 | 11.11° C | 69% | 1023.7 hPa | 0 mm | - | - | - |
* Rain latest hour (hover to see other rain measurements)
** Current wind speed in m/s (hover to see current wind gust speed)